CREW DRAGON 4

Last updated on Sat Oct 15 2022 01:02:07 GMT+0100 (British Summer Time)

1 52318U 22042A 22287.73592778 .99999999 00000+0 13225+1 0 9992 2 52318 51.6415 104.3028 0003314 303.6303 178.2173 15.53303268 26430

Satellite not in orbit